Location: Newark
(48.3453°N, 0.5589°E)
Time: 00:13:12
(UTC+00:00)

ISS - Visible Passes

Search period start: 15 November 2019 00:00
Search period end: 25 November 2019 00:00
Orbit: 412 x 421 km, 51.6° (Epoch: 15 November)

Date Brightness Start Highest point End Pass type
(mag) Time Alt. Az. Time Alt. Az. Time Alt. Az.
21 Nov -1.3 18:15:17 10° S 18:16:01 13° S 18:16:01 13° S visible
22 Nov -1.4 17:28:27 10° SSE 17:29:22 11° SE 17:29:50 11° SE visible
22 Nov -0.8 19:02:12 10° SW 19:02:46 14° SW 19:02:46 14° SW visible
23 Nov -2.6 18:14:00 10° SW 18:16:29 33° S 18:16:29 33° S visible
24 Nov -2.3 17:26:02 10° SSW 17:28:48 24° SE 17:30:08 19° ESE visible
24 Nov -1.1 19:01:56 10° WSW 19:03:03 19° WSW 19:03:03 19° WSW visible
